Location: Unspecified
(49.2170°N, 0.0000°E)
Time: 09:55:00
(UTC+00:00)

Vanguard 2 Rocket - Pass Details

Date: 25 January 2021
Orbit: 554 x 3326 km, 32.9° (Epoch: 25 February)

Event Time Altitude Azimuth Distance (km) Brightness Sun altitude
Rises 19:08:08 0° 260° (W) 4,903 12.1 -23.1°
Reaches altitude 10° 19:13:47 10° 238° (WSW) 3,265 10.5 -24.0°
Maximum altitude 19:17:18 14° 211° (SSW) 2,596 9.6 -24.6°
Drops below altitude 10° 19:20:12 10° 182° (S) 2,547 9.2 -25.1°
Enters shadow 19:21:40 - 169° (S) 2,728 9.2 -25.3°
